Weather History for KRQB - August, 2013

Change the Weather History Date:

Wednesday, August 14, 2013

  Actual Average Record
Temperature  
Mean Temperature 56 °F -  
Max Temperature 71 °F 79 °F 91 °F (1978)
Min Temperature 41 °F 55 °F 39 °F (2004)
Degree Days  
Heating Degree Days 9    
Growing Degree Days 6 (Base 50)    
Moisture  
Dew Point 43 °F    
Average Humidity 64    
Maximum Humidity 100    
Minimum Humidity 32    
Precipitation  
Precipitation 0.00 in - - ()
Sea Level Pressure  
Sea Level Pressure 30.16 in    
Wind  
Wind Speed 4 mph (WNW)    
Max Wind Speed 14 mph    
Max Gust Speed 25 mph    
Visibility 10 miles    
Events      
Averages and records for this station are not official NWS values.
T = Trace of Precipitation, MM = Missing Value Source: NWS Daily Summary

Daily Weather History Graph

Daily Weather History Graph

Search for Another Location

Airport or City:

Trip Planner

Search our weather history database for the weather conditions in past years. The results will help you decide how hot, cold, wet, or windy it might be!

Date:

Astronomy

Aug. 14, 2013 Rise Set
Actual Time 6:45 AM EDT 8:46 PM EDT
Civil Twilight 6:14 AM EDT 9:17 PM EDT
Nautical Twilight 5:36 AM EDT 9:56 PM EDT
Astronomical Twilight 4:53 AM EDT 10:37 PM EDT
Moon 3:00 PM EDT (8/14) 12:06 AM EDT (8/14)
Length of Visible Light 15h 03m
Length of Day
14h 01m
First Quarter, 52% of the Moon is Illuminated
Aug 14
First Quarter
Aug 20
Full
Aug 28
Last Quarter
Sep 5
New
Sep 12
First Quarter

Hourly Weather History & Observations

Time (EDT) Temp. Windchill Dew Point Humidity Pressure Visibility Wind Dir Wind Speed Gust Speed Precip Events Conditions
12:15 AM 51.3 °F - 41.2 °F 68% 30.12 in 10.0 mi WNW 5.8 mph - N/A   Overcast
12:34 AM 51.3 °F - 41.0 °F 68% 30.12 in 10.0 mi WNW 5.8 mph - N/A   Overcast
12:55 AM 51.8 °F - 41.2 °F 67% 30.12 in 10.0 mi WNW 5.8 mph - N/A   Overcast
1:15 AM 50.5 °F - 41.0 °F 70% 30.13 in 10.0 mi WNW 4.6 mph - N/A   Mostly Cloudy
1:34 AM 49.3 °F - 40.6 °F 72% 30.13 in 10.0 mi WNW 3.5 mph - N/A   Clear
1:55 AM 49.1 °F - 41.0 °F 74% 30.13 in 10.0 mi Calm Calm - N/A   Clear
2:15 AM 48.2 °F - 40.5 °F 75% 30.13 in 10.0 mi West 4.6 mph - N/A   Clear
2:34 AM 47.7 °F - 40.6 °F 77% 30.14 in 10.0 mi Calm Calm - N/A   Clear
2:55 AM 46.8 °F - 40.1 °F 78% 30.14 in 10.0 mi WNW 4.6 mph - N/A   Clear
3:14 AM 46.2 °F - 40.3 °F 80% 30.14 in 10.0 mi Calm Calm - N/A   Clear
3:34 AM 46.6 °F - 41.0 °F 81% 30.14 in 10.0 mi Calm Calm - N/A   Clear
3:55 AM 43.7 °F - 42.8 °F 97% 30.14 in 10.0 mi Calm Calm - N/A   Clear
4:14 AM 45.0 °F 42.6 °F 45.0 °F 100% 30.14 in 10.0 mi WNW 4.6 mph - N/A   Clear
4:34 AM 46.9 °F - 45.7 °F 95% 30.14 in 10.0 mi WNW 4.6 mph - N/A   Clear
4:55 AM 46.4 °F 43.5 °F 45.5 °F 97% 30.14 in 10.0 mi WNW 5.8 mph - N/A   Clear
5:14 AM 45.1 °F - 45.0 °F 99% 30.15 in 10.0 mi Calm Calm - N/A   Clear
5:34 AM 45.0 °F - 45.0 °F 100% 30.15 in 10.0 mi Calm Calm - N/A   Clear
5:55 AM 45.7 °F - 45.7 °F 100% 30.16 in 10.0 mi Calm Calm - N/A   Clear
6:15 AM 43.7 °F - 43.7 °F 100% 30.16 in 10.0 mi Calm Calm - N/A   Clear
6:35 AM 42.8 °F - 42.8 °F 100% 30.16 in 10.0 mi Calm Calm - N/A   Clear
6:54 AM 43.7 °F - 43.7 °F 100% 30.17 in 10.0 mi Calm Calm - N/A   Clear
7:15 AM 41.2 °F - 41.2 °F 100% 30.17 in 10.0 mi Calm Calm - N/A   Clear
7:35 AM 43.7 °F - 43.7 °F 100% 30.18 in 10.0 mi Calm Calm - N/A   Clear
7:54 AM 45.9 °F - 45.9 °F 100% 30.18 in 10.0 mi Calm Calm - N/A   Clear
8:15 AM 48.0 °F - 47.3 °F 97% 30.18 in 10.0 mi Calm Calm - N/A   Clear
8:35 AM 51.4 °F - 49.1 °F 92% 30.19 in 10.0 mi Calm Calm - N/A   Clear
8:54 AM 54.0 °F - 45.5 °F 73% 30.19 in 10.0 mi South 3.5 mph - N/A   Clear
9:15 AM 57.6 °F - 47.3 °F 69% 30.19 in 10.0 mi NNE 9.2 mph - N/A   Clear
9:34 AM 59.5 °F - 47.5 °F 64% 30.19 in 10.0 mi North 8.1 mph - N/A   Clear
9:54 AM 60.8 °F - 45.9 °F 58% 30.19 in 10.0 mi North 11.5 mph 16.1 mph N/A   Scattered Clouds
10:15 AM 60.8 °F - 45.1 °F 56% 30.19 in 10.0 mi North 9.2 mph - N/A   Scattered Clouds
10:34 AM 61.3 °F - 46.0 °F 57% 30.19 in 10.0 mi NW 8.1 mph 16.1 mph N/A   Mostly Cloudy
10:55 AM 60.8 °F - 45.5 °F 57% 30.19 in 10.0 mi NNW 3.5 mph - N/A   Scattered Clouds
11:15 AM 63.1 °F - 44.6 °F 51% 30.19 in 10.0 mi NW 6.9 mph - N/A   Scattered Clouds
11:34 AM 63.9 °F - 42.4 °F 46% 30.19 in 10.0 mi NW 10.4 mph 16.1 mph N/A   Mostly Cloudy
11:55 AM 64.8 °F - 42.3 °F 44% 30.19 in 10.0 mi NNW 6.9 mph 18.4 mph N/A   Scattered Clouds
12:15 PM 65.8 °F - 42.1 °F 42% 30.19 in 10.0 mi NW 6.9 mph - N/A   Scattered Clouds
12:34 PM 65.5 °F - 42.1 °F 43% 30.18 in 10.0 mi NW 5.8 mph - N/A   Mostly Cloudy
12:55 PM 64.9 °F - 41.2 °F 42% 30.18 in 10.0 mi NNW 5.8 mph - N/A   Overcast
1:15 PM 65.8 °F - 39.7 °F 38% 30.17 in 10.0 mi North 4.6 mph - N/A   Mostly Cloudy
1:34 PM 67.8 °F - 38.5 °F 34% 30.17 in 10.0 mi WNW 5.8 mph - N/A   Mostly Cloudy
1:55 PM 66.4 °F - 37.6 °F 35% 30.17 in 10.0 mi West 6.9 mph - N/A   Overcast
2:15 PM 67.5 °F - 39.9 °F 37% 30.17 in 10.0 mi West 11.5 mph - N/A   Overcast
2:34 PM 68.9 °F - 37.8 °F 32% 30.16 in 10.0 mi Calm Calm - N/A   Mostly Cloudy
2:55 PM 68.9 °F - 38.8 °F 33% 30.16 in 10.0 mi NW 5.8 mph - N/A   Mostly Cloudy
3:55 PM 71.2 °F - 39.7 °F 32% 30.14 in 10.0 mi Calm Calm - N/A   Overcast
4:15 PM 68.0 °F - 41.7 °F 38% 30.14 in 10.0 mi NW 5.8 mph - N/A   Overcast
4:34 PM 67.6 °F - 42.4 °F 40% 30.14 in 10.0 mi NW 8.1 mph - N/A   Overcast
4:55 PM 70.3 °F - 42.6 °F 37% 30.14 in 10.0 mi West 9.2 mph - N/A   Scattered Clouds
5:14 PM 69.3 °F - 43.3 °F 39% 30.14 in 10.0 mi WSW 8.1 mph - N/A   Clear
5:34 PM 70.5 °F - 43.7 °F 38% 30.14 in 10.0 mi West 12.7 mph - N/A   Scattered Clouds
5:55 PM 70.0 °F - 44.8 °F 40% 30.14 in 10.0 mi WSW 12.7 mph - N/A   Mostly Cloudy
6:14 PM 69.1 °F - 44.2 °F 41% 30.14 in 10.0 mi West 13.8 mph 18.4 mph N/A   Mostly Cloudy
6:34 PM 68.4 °F - 43.9 °F 41% 30.14 in 10.0 mi NW 9.2 mph - N/A   Scattered Clouds
6:55 PM 67.1 °F - 42.6 °F 41% 30.13 in 10.0 mi West 12.7 mph - N/A   Scattered Clouds
7:14 PM 65.8 °F - 41.2 °F 41% 30.14 in 10.0 mi WNW 12.7 mph 21.9 mph N/A   Clear
7:35 PM 64.8 °F - 40.6 °F 41% 30.14 in 10.0 mi West 13.8 mph 25.3 mph N/A   Clear
7:55 PM 63.5 °F - 40.6 °F 43% 30.14 in 10.0 mi WNW 5.8 mph - N/A   Clear
8:14 PM 62.4 °F - 41.0 °F 45% 30.14 in 10.0 mi West 8.1 mph - N/A   Clear
8:35 PM 60.8 °F - 39.9 °F 46% 30.14 in 10.0 mi Calm Calm - N/A   Clear
8:55 PM 57.4 °F - 41.7 °F 56% 30.14 in 10.0 mi Calm Calm - N/A   Clear
9:14 PM 55.4 °F - 42.8 °F 63% 30.15 in 10.0 mi Calm Calm - N/A   Clear
9:35 PM 54.9 °F - 41.9 °F 62% 30.14 in 10.0 mi Calm Calm - N/A   Clear
9:54 PM 51.8 °F - 41.9 °F 69% 30.15 in 10.0 mi Calm Calm - N/A   Clear
10:15 PM 51.4 °F - 41.9 °F 70% 30.15 in 10.0 mi South 3.5 mph - N/A   Clear
10:35 PM 50.9 °F - 41.7 °F 71% 30.14 in 10.0 mi Calm Calm - N/A   Clear
10:54 PM 49.6 °F - 41.0 °F 72% 30.15 in 10.0 mi Calm Calm - N/A   Clear
11:15 PM 48.4 °F - 41.0 °F 76% 30.15 in 10.0 mi Calm Calm - N/A   Clear
11:35 PM 48.4 °F - 41.2 °F 76% 30.15 in 10.0 mi NW 3.5 mph - N/A   Clear
11:54 PM 47.5 °F - 40.8 °F 78% 30.15 in 10.0 mi Calm Calm - N/A   Clear